Precipitable_Water
0.42 0.32 0.29 0.29 0.30 0.33 0.35 0.36 0.34 0.32 0.31 0.30 0.29 0.28 0.27 0.27 0.27 0.32 0.31 0.33 0.33 0.27 0.25 0.25 0.25 0.24 0.25 0.26 0.28 0.29 0.29 0.28 0.28 0.28 0.28 0.28 0.27 0.28 0.29 0.29 0.30 0.31 0.33 0.37 0.38 0.36 0.36 0.36 0.37 0.38 0.39 0.39 0.38 0.37 0.34 0.33 0.33 0.33 0.33 0.33 0.32 0.35 0.37 0.37 0.37 0.39 0.40 0.40 0.41 0.43 0.41 0.40 0.42 0.43 0.44 0.43 0.44 0.43 0.43 0.41 0.38 0.37 0.37 0.37 0.38 0.38
0.41 0.32 0.30 0.33 0.35 0.37 0.36 0.36 0.35 0.33 0.32 0.29 0.28 0.27 0.26 0.28 0.25 0.30 0.29 0.31 0.30 0.25 0.23 0.25 0.24 0.23 0.24 0.26 0.27 0.28 0.28 0.27 0.28 0.28 0.29 0.30 0.31 0.32 0.32 0.33 0.34 0.35 0.37 0.35 0.35 0.35 0.36 0.36 0.36 0.37 0.38 0.38 0.37 0.37 0.37 0.35 0.34 0.34 0.34 0.33 0.34 0.35 0.36 0.36 0.37 0.37 0.39 0.40 0.40 0.38 0.38 0.40 0.42 0.42 0.42 0.41 0.42 0.43 0.43 0.43 0.40 0.38 0.37 0.37 0.38 0.39
0.34 0.31 0.34 0.38 0.41 0.39 0.38 0.36 0.35 0.33 0.30 0.30 0.28 0.27 0.26 0.27 0.28 0.28 0.28 0.28 0.28 0.25 0.21 0.24 0.22 0.23 0.24 0.26 0.27 0.28 0.28 0.28 0.29 0.30 0.29 0.30 0.29 0.29 0.32 0.33 0.34 0.34 0.33 0.34 0.34 0.36 0.36 0.35 0.36 0.37 0.38 0.38 0.38 0.37 0.37 0.37 0.36 0.36 0.35 0.35 0.35 0.35 0.35 0.36 0.37 0.38 0.38 0.41 0.43 0.43 0.42 0.42 0.42 0.46 0.46 0.45 0.44 0.45 0.43 0.43 0.42 0.40 0.38 0.38 0.38 0.39
0.31 0.35 0.39 0.42 0.41 0.38 0.36 0.36 0.35 0.33 0.33 0.31 0.30 0.27 0.24 0.26 0.24 0.20 0.25 0.27 0.28 0.26 0.23 0.25 0.22 0.23 0.26 0.26 0.26 0.27 0.27 0.28 0.30 0.30 0.31 0.32 0.30 0.31 0.32 0.31 0.31 0.31 0.32 0.32 0.34 0.34 0.34 0.35 0.36 0.37 0.37 0.37 0.38 0.37 0.36 0.36 0.36 0.36 0.36 0.36 0.35 0.35 0.36 0.36 0.38 0.39 0.41 0.43 0.45 0.45 0.44 0.44 0.45 0.44 0.46 0.46 0.46 0.45 0.44 0.42 0.43 0.42 0.40 0.39 0.39 0.39
0.34 0.39 0.43 0.42 0.41 0.39 0.35 0.36 0.35 0.33 0.29 0.31 0.29 0.27 0.25 0.24 0.24 0.24 0.23 0.27 0.28 0.29 0.29 0.26 0.22 0.22 0.22 0.22 0.23 0.26 0.29 0.30 0.30 0.32 0.32 0.32 0.32 0.33 0.32 0.31 0.32 0.31 0.32 0.33 0.33 0.33 0.33 0.33 0.34 0.35 0.36 0.37 0.37 0.37 0.36 0.36 0.36 0.37 0.36 0.37 0.37 0.37 0.36 0.36 0.37 0.39 0.40 0.41 0.41 0.42 0.43 0.44 0.45 0.45 0.44 0.43 0.42 0.43 0.43 0.43 0.43 0.42 0.43 0.41 0.39 0.39
0.37 0.43 0.44 0.40 0.39 0.38 0.36 0.34 0.33 0.32 0.28 0.30 0.31 0.30 0.27 0.27 0.26 0.27 0.28 0.26 0.24 0.24 0.28 0.26 0.17 0.16 0.20 0.22 0.24 0.27 0.30 0.30 0.32 0.30 0.29 0.30 0.30 0.30 0.30 0.30 0.32 0.33 0.34 0.33 0.32 0.33 0.32 0.33 0.33 0.34 0.35 0.36 0.38 0.37 0.38 0.38 0.37 0.37 0.38 0.38 0.39 0.39 0.39 0.39 0.39 0.39 0.40 0.39 0.39 0.39 0.39 0.39 0.39 0.38 0.38 0.37 0.36 0.39 0.40 0.40 0.43 0.44 0.44 0.43 0.41 0.40
0.38 0.43 0.42 0.38 0.37 0.37 0.36 0.34 0.37 0.37 0.32 0.29 0.31 0.35 0.32 0.31 0.30 0.29 0.28 0.27 0.22 0.20 0.25 0.30 0.21 0.14 0.21 0.23 0.25 0.28 0.29 0.29 0.28 0.28 0.28 0.28 0.28 0.29 0.30 0.31 0.32 0.33 0.33 0.33 0.32 0.32 0.31 0.32 0.32 0.33 0.34 0.36 0.36 0.37 0.38 0.39 0.38 0.38 0.38 0.39 0.40 0.40 0.40 0.41 0.41 0.42 0.41 0.40 0.40 0.39 0.39 0.39 0.38 0.38 0.39 0.42 0.43 0.42 0.43 0.45 0.44 0.44 0.45 0.45 0.43 0.42
0.42 0.41 0.41 0.41 0.38 0.36 0.35 0.35 0.41 0.40 0.35 0.31 0.38 0.37 0.36 0.34 0.32 0.32 0.31 0.30 0.27 0.31 0.30 0.31 0.28 0.22 0.17 0.21 0.27 0.28 0.28 0.26 0.27 0.27 0.27 0.27 0.28 0.29 0.32 0.34 0.34 0.33 0.32 0.31 0.31 0.31 0.31 0.32 0.32 0.33 0.35 0.36 0.37 0.38 0.38 0.38 0.38 0.38 0.38 0.38 0.38 0.40 0.40 0.40 0.40 0.41 0.41 0.40 0.40 0.40 0.40 0.41 0.40 0.40 0.40 0.42 0.43 0.45 0.45 0.44 0.44 0.45 0.45 0.45 0.44 0.43
0.41 0.39 0.39 0.38 0.38 0.36 0.35 0.40 0.43 0.44 0.39 0.37 0.40 0.41 0.38 0.38 0.37 0.36 0.34 0.32 0.31 0.29 0.23 0.27 0.31 0.24 0.19 0.23 0.28 0.28 0.25 0.24 0.25 0.26 0.28 0.30 0.31 0.33 0.34 0.34 0.33 0.32 0.31 0.31 0.30 0.30 0.30 0.31 0.33 0.34 0.35 0.36 0.37 0.37 0.38 0.38 0.39 0.39 0.39 0.39 0.39 0.38 0.39 0.40 0.40 0.41 0.41 0.42 0.41 0.41 0.41 0.41 0.42 0.43 0.43 0.44 0.45 0.44 0.45 0.44 0.45 0.45 0.45 0.45 0.45 0.44
0.41 0.40 0.40 0.39 0.37 0.35 0.40 0.44 0.45 0.45 0.39 0.41 0.44 0.43 0.42 0.41 0.39 0.38 0.35 0.32 0.31 0.27 0.20 0.25 0.29 0.23 0.18 0.22 0.24 0.26 0.24 0.23 0.26 0.30 0.32 0.33 0.33 0.34 0.34 0.34 0.33 0.32 0.32 0.32 0.32 0.32 0.32 0.32 0.33 0.34 0.35 0.35 0.36 0.38 0.39 0.40 0.40 0.39 0.40 0.40 0.40 0.39 0.39 0.40 0.40 0.41 0.41 0.42 0.42 0.41 0.41 0.41 0.41 0.43 0.43 0.44 0.44 0.44 0.45 0.44 0.44 0.45 0.44 0.44 0.44 0.44
0.42 0.45 0.44 0.40 0.37 0.39 0.43 0.45 0.46 0.44 0.43 0.46 0.44 0.40 0.39 0.39 0.38 0.37 0.35 0.33 0.29 0.22 0.21 0.27 0.28 0.26 0.18 0.19 0.21 0.22 0.22 0.25 0.27 0.31 0.32 0.34 0.35 0.35 0.33 0.32 0.33 0.33 0.33 0.33 0.33 0.34 0.34 0.34 0.33 0.33 0.33 0.34 0.36 0.37 0.38 0.39 0.40 0.41 0.41 0.41 0.41 0.42 0.42 0.42 0.42 0.42 0.42 0.42 0.42 0.42 0.42 0.41 0.41 0.42 0.42 0.42 0.42 0.44 0.44 0.43 0.43 0.44 0.44 0.45 0.45 0.45
0.41 0.41 0.39 0.41 0.44 0.45 0.45 0.42 0.46 0.46 0.45 0.43 0.39 0.37 0.36 0.35 0.36 0.33 0.31 0.31 0.23 0.20 0.22 0.27 0.27 0.27 0.18 0.17 0.22 0.25 0.27 0.28 0.30 0.31 0.32 0.34 0.35 0.33 0.33 0.35 0.35 0.35 0.37 0.36 0.36 0.36 0.36 0.36 0.36 0.36 0.34 0.34 0.34 0.35 0.36 0.38 0.39 0.39 0.39 0.40 0.40 0.42 0.43 0.43 0.43 0.43 0.43 0.43 0.43 0.43 0.43 0.42 0.42 0.42 0.41 0.40 0.40 0.41 0.41 0.42 0.42 0.44 0.45 0.45 0.45 0.45
0.35 0.36 0.41 0.43 0.48 0.44 0.42 0.40 0.41 0.45 0.44 0.41 0.37 0.35 0.30 0.27 0.27 0.24 0.26 0.22 0.22 0.20 0.24 0.28 0.28 0.25 0.20 0.20 0.26 0.29 0.30 0.32 0.34 0.33 0.34 0.36 0.35 0.35 0.36 0.36 0.36 0.36 0.36 0.36 0.37 0.38 0.38 0.38 0.38 0.38 0.37 0.37 0.36 0.36 0.37 0.38 0.39 0.39 0.39 0.39 0.38 0.38 0.40 0.42 0.43 0.43 0.44 0.44 0.43 0.43 0.43 0.43 0.43 0.43 0.42 0.41 0.41 0.41 0.41 0.41 0.42 0.42 0.42 0.43 0.42 0.43
0.34 0.40 0.41 0.42 0.44 0.47 0.45 0.38 0.37 0.36 0.38 0.35 0.32 0.31 0.28 0.24 0.23 0.20 0.22 0.24 0.23 0.25 0.28 0.28 0.31 0.24 0.24 0.25 0.29 0.30 0.32 0.34 0.35 0.38 0.40 0.38 0.37 0.36 0.37 0.38 0.37 0.38 0.38 0.39 0.40 0.41 0.41 0.41 0.41 0.41 0.41 0.41 0.40 0.39 0.38 0.39 0.40 0.41 0.41 0.40 0.38 0.38 0.39 0.41 0.41 0.42 0.42 0.43 0.44 0.45 0.44 0.44 0.44 0.43 0.43 0.42 0.42 0.43 0.43 0.43 0.42 0.42 0.42 0.41 0.42 0.43
0.28 0.28 0.34 0.38 0.37 0.47 0.45 0.42 0.39 0.35 0.34 0.35 0.38 0.34 0.30 0.27 0.23 0.20 0.22 0.19 0.20 0.22 0.27 0.31 0.27 0.23 0.21 0.22 0.30 0.31 0.34 0.37 0.41 0.43 0.41 0.40 0.39 0.37 0.39 0.40 0.40 0.40 0.40 0.42 0.42 0.42 0.43 0.43 0.44 0.44 0.45 0.45 0.45 0.44 0.43 0.42 0.42 0.42 0.41 0.40 0.40 0.38 0.38 0.39 0.39 0.41 0.41 0.42 0.43 0.43 0.44 0.45 0.45 0.44 0.43 0.43 0.43 0.43 0.43 0.43 0.43 0.43 0.43 0.42 0.44 0.45
0.31 0.31 0.37 0.44 0.45 0.46 0.40 0.42 0.40 0.36 0.36 0.37 0.38 0.38 0.31 0.27 0.32 0.24 0.25 0.24 0.23 0.24 0.25 0.26 0.25 0.28 0.26 0.30 0.32 0.34 0.36 0.39 0.41 0.39 0.39 0.38 0.37 0.37 0.37 0.39 0.40 0.41 0.41 0.42 0.42 0.43 0.44 0.45 0.46 0.46 0.47 0.47 0.47 0.47 0.46 0.46 0.45 0.44 0.43 0.43 0.42 0.41 0.41 0.41 0.40 0.40 0.41 0.42 0.43 0.43 0.43 0.43 0.43 0.43 0.44 0.43 0.43 0.43 0.43 0.43 0.43 0.43 0.44 0.45 0.46 0.47
0.33 0.29 0.36 0.40 0.44 0.42 0.40 0.40 0.39 0.40 0.27 0.33 0.35 0.29 0.31 0.38 0.33 0.28 0.28 0.29 0.28 0.26 0.22 0.26 0.25 0.27 0.31 0.32 0.32 0.33 0.35 0.35 0.37 0.38 0.37 0.36 0.35 0.36 0.37 0.39 0.40 0.41 0.42 0.43 0.43 0.44 0.44 0.46 0.46 0.47 0.47 0.47 0.47 0.47 0.47 0.47 0.48 0.47 0.46 0.45 0.43 0.43 0.43 0.43 0.43 0.42 0.42 0.42 0.42 0.44 0.45 0.45 0.44 0.43 0.42 0.42 0.42 0.43 0.43 0.43 0.44 0.44 0.46 0.47 0.48 0.48
0.32 0.32 0.38 0.36 0.34 0.41 0.43 0.41 0.40 0.40 0.40 0.37 0.31 0.33 0.40 0.42 0.37 0.30 0.22 0.24 0.23 0.20 0.21 0.26 0.22 0.22 0.24 0.22 0.31 0.31 0.31 0.34 0.36 0.36 0.35 0.33 0.34 0.35 0.38 0.39 0.40 0.40 0.42 0.43 0.44 0.45 0.46 0.46 0.47 0.48 0.48 0.48 0.48 0.48 0.48 0.49 0.49 0.49 0.49 0.48 0.47 0.46 0.45 0.45 0.44 0.44 0.44 0.43 0.42 0.43 0.44 0.45 0.46 0.45 0.44 0.43 0.42 0.42 0.43 0.43 0.44 0.46 0.46 0.47 0.49 0.49
0.40 0.30 0.32 0.35 0.35 0.39 0.43 0.42 0.38 0.40 0.43 0.37 0.35 0.46 0.33 0.26 0.24 0.27 0.25 0.19 0.19 0.19 0.21 0.24 0.27 0.27 0.28 0.27 0.30 0.29 0.30 0.33 0.33 0.33 0.32 0.32 0.34 0.37 0.39 0.40 0.41 0.41 0.41 0.42 0.43 0.44 0.45 0.46 0.47 0.48 0.49 0.49 0.50 0.50 0.50 0.50 0.50 0.50 0.50 0.49 0.49 0.48 0.49 0.49 0.48 0.47 0.47 0.46 0.45 0.44 0.43 0.44 0.46 0.46 0.46 0.45 0.44 0.43 0.43 0.43 0.45 0.45 0.46 0.48 0.49 0.49
0.40 0.30 0.33 0.40 0.37 0.40 0.41 0.38 0.27 0.32 0.40 0.42 0.42 0.37 0.40 0.33 0.27 0.24 0.25 0.27 0.26 0.20 0.22 0.23 0.29 0.26 0.33 0.29 0.28 0.28 0.29 0.28 0.29 0.31 0.32 0.34 0.37 0.39 0.40 0.42 0.42 0.42 0.42 0.41 0.43 0.44 0.45 0.46 0.47 0.48 0.49 0.49 0.49 0.50 0.51 0.51 0.51 0.50 0.50 0.50 0.49 0.49 0.51 0.51 0.51 0.52 0.51 0.50 0.49 0.48 0.47 0.45 0.45 0.46 0.46 0.46 0.46 0.44 0.44 0.44 0.45 0.46 0.46 0.47 0.48 0.49
0.34 0.42 0.27 0.32 0.36 0.35 0.27 0.32 0.28 0.30 0.30 0.33 0.33 0.30 0.30 0.29 0.34 0.32 0.31 0.28 0.23 0.23 0.23 0.23 0.22 0.26 0.30 0.33 0.30 0.30 0.30 0.31 0.31 0.32 0.34 0.37 0.39 0.41 0.42 0.43 0.43 0.43 0.43 0.43 0.44 0.45 0.47 0.47 0.48 0.49 0.50 0.50 0.50 0.51 0.51 0.51 0.51 0.51 0.51 0.50 0.50 0.49 0.49 0.51 0.52 0.53 0.52 0.53 0.52 0.51 0.51 0.50 0.47 0.46 0.46 0.46 0.45 0.45 0.46 0.46 0.46 0.46 0.47 0.48 0.48 0.50
0.36 0.34 0.25 0.29 0.30 0.28 0.27 0.33 0.33 0.33 0.33 0.31 0.31 0.29 0.29 0.27 0.25 0.23 0.21 0.31 0.28 0.26 0.23 0.22 0.20 0.24 0.29 0.35 0.34 0.34 0.36 0.36 0.37 0.37 0.37 0.39 0.41 0.42 0.43 0.44 0.44 0.43 0.43 0.43 0.44 0.44 0.45 0.46 0.47 0.47 0.47 0.48 0.49 0.50 0.50 0.51 0.51 0.51 0.50 0.50 0.50 0.49 0.49 0.50 0.52 0.54 0.54 0.54 0.54 0.54 0.53 0.53 0.52 0.50 0.48 0.48 0.46 0.45 0.45 0.47 0.47 0.47 0.48 0.48 0.49 0.50
0.37 0.34 0.29 0.23 0.23 0.22 0.25 0.28 0.34 0.37 0.37 0.36 0.35 0.32 0.34 0.33 0.33 0.28 0.22 0.24 0.29 0.28 0.30 0.26 0.22 0.23 0.35 0.39 0.39 0.40 0.40 0.41 0.42 0.43 0.42 0.43 0.42 0.42 0.42 0.43 0.43 0.43 0.43 0.44 0.44 0.45 0.45 0.46 0.46 0.45 0.45 0.46 0.47 0.47 0.49 0.50 0.51 0.50 0.51 0.51 0.51 0.49 0.49 0.49 0.51 0.54 0.55 0.54 0.53 0.53 0.54 0.54 0.54 0.53 0.51 0.49 0.49 0.48 0.48 0.47 0.48 0.49 0.49 0.49 0.50 0.51
0.40 0.28 0.25 0.25 0.31 0.35 0.38 0.39 0.41 0.41 0.39 0.37 0.38 0.38 0.36 0.31 0.31 0.28 0.27 0.28 0.25 0.25 0.23 0.22 0.21 0.28 0.38 0.40 0.41 0.44 0.47 0.46 0.48 0.48 0.46 0.45 0.44 0.42 0.41 0.40 0.40 0.40 0.40 0.41 0.42 0.42 0.43 0.44 0.44 0.45 0.45 0.45 0.45 0.47 0.47 0.48 0.49 0.49 0.49 0.50 0.51 0.50 0.50 0.50 0.50 0.52 0.53 0.53 0.54 0.54 0.53 0.53 0.53 0.53 0.53 0.52 0.50 0.49 0.50 0.51 0.51 0.50 0.49 0.50 0.51 0.51
0.28 0.33 0.32 0.25 0.26 0.27 0.29 0.32 0.32 0.37 0.37 0.33 0.32 0.35 0.35 0.35 0.35 0.34 0.34 0.32 0.24 0.27 0.26 0.24 0.19 0.26 0.42 0.44 0.45 0.46 0.45 0.44 0.45 0.46 0.45 0.42 0.42 0.42 0.40 0.39 0.37 0.36 0.35 0.35 0.35 0.35 0.37 0.38 0.39 0.41 0.42 0.43 0.43 0.45 0.45 0.46 0.47 0.47 0.48 0.48 0.48 0.49 0.50 0.51 0.51 0.50 0.51 0.52 0.52 0.53 0.53 0.53 0.53 0.52 0.51 0.52 0.51 0.52 0.52 0.51 0.51 0.52 0.51 0.50 0.50 0.50
0.33 0.30 0.28 0.20 0.16 0.14 0.13 0.12 0.14 0.18 0.25 0.33 0.36 0.35 0.36 0.35 0.34 0.32 0.27 0.28 0.23 0.27 0.28 0.25 0.25 0.33 0.41 0.43 0.43 0.43 0.42 0.40 0.41 0.41 0.42 0.42 0.42 0.41 0.39 0.39 0.37 0.36 0.35 0.34 0.33 0.33 0.33 0.34 0.35 0.36 0.38 0.38 0.40 0.40 0.40 0.41 0.41 0.43 0.44 0.46 0.47 0.46 0.46 0.49 0.51 0.50 0.49 0.49 0.49 0.50 0.51 0.52 0.52 0.52 0.52 0.52 0.52 0.51 0.51 0.52 0.52 0.52 0.52 0.53 0.51 0.51
0.35 0.37 0.34 0.30 0.25 0.22 0.23 0.26 0.32 0.34 0.30 0.28 0.31 0.34 0.34 0.36 0.37 0.35 0.32 0.28 0.23 0.25 0.26 0.28 0.28 0.29 0.31 0.33 0.35 0.37 0.37 0.36 0.36 0.37 0.37 0.37 0.38 0.38 0.37 0.35 0.33 0.31 0.31 0.30 0.30 0.30 0.31 0.32 0.33 0.33 0.34 0.35 0.35 0.37 0.37 0.37 0.37 0.38 0.39 0.40 0.43 0.44 0.44 0.45 0.46 0.48 0.48 0.48 0.48 0.47 0.48 0.49 0.51 0.52 0.52 0.52 0.53 0.53 0.53 0.53 0.53 0.53 0.53 0.53 0.53 0.53
0.27 0.23 0.25 0.26 0.27 0.27 0.29 0.30 0.32 0.33 0.28 0.28 0.28 0.28 0.30 0.31 0.31 0.30 0.27 0.24 0.30 0.27 0.22 0.28 0.30 0.30 0.32 0.35 0.35 0.35 0.34 0.33 0.32 0.31 0.30 0.30 0.29 0.28 0.28 0.27 0.26 0.25 0.26 0.27 0.27 0.28 0.27 0.28 0.28 0.28 0.29 0.30 0.31 0.32 0.34 0.35 0.36 0.36 0.36 0.37 0.38 0.40 0.40 0.41 0.42 0.43 0.44 0.46 0.47 0.47 0.47 0.48 0.49 0.51 0.52 0.53 0.53 0.54 0.54 0.54 0.54 0.56 0.56 0.56 0.55 0.54
0.22 0.18 0.20 0.21 0.20 0.24 0.25 0.25 0.26 0.26 0.26 0.26 0.26 0.26 0.24 0.26 0.27 0.24 0.23 0.27 0.28 0.24 0.19 0.22 0.24 0.23 0.24 0.26 0.28 0.28 0.27 0.26 0.26 0.25 0.25 0.25 0.25 0.25 0.25 0.23 0.20 0.20 0.21 0.22 0.23 0.24 0.24 0.23 0.23 0.23 0.23 0.24 0.25 0.26 0.27 0.29 0.31 0.33 0.34 0.35 0.36 0.37 0.37 0.40 0.40 0.40 0.40 0.40 0.43 0.46 0.48 0.48 0.48 0.48 0.49 0.52 0.53 0.53 0.54 0.55 0.55 0.55 0.56 0.58 0.58 0.58
0.25 0.20 0.22 0.22 0.21 0.21 0.21 0.21 0.22 0.21 0.22 0.23 0.23 0.24 0.25 0.23 0.21 0.21 0.21 0.23 0.22 0.21 0.23 0.24 0.23 0.22 0.25 0.26 0.27 0.28 0.28 0.26 0.26 0.25 0.25 0.23 0.23 0.24 0.23 0.21 0.19 0.19 0.19 0.19 0.19 0.19 0.19 0.19 0.19 0.20 0.20 0.21 0.22 0.22 0.22 0.23 0.24 0.25 0.27 0.29 0.32 0.34 0.36 0.38 0.39 0.39 0.38 0.38 0.38 0.42 0.46 0.47 0.48 0.48 0.48 0.48 0.51 0.52 0.53 0.54 0.54 0.55 0.55 0.56 0.58 0.59
0.26 0.19 0.25 0.23 0.21 0.20 0.23 0.24 0.24 0.24 0.23 0.20 0.22 0.23 0.23 0.22 0.21 0.21 0.20 0.19 0.19 0.20 0.20 0.20 0.20 0.21 0.26 0.28 0.27 0.29 0.28 0.25 0.24 0.21 0.20 0.20 0.21 0.22 0.22 0.19 0.18 0.18 0.17 0.17 0.17 0.17 0.17 0.17 0.17 0.17 0.17 0.17 0.18 0.18 0.19 0.19 0.20 0.21 0.22 0.24 0.26 0.28 0.30 0.33 0.35 0.36 0.36 0.36 0.37 0.39 0.41 0.43 0.45 0.46 0.47 0.48 0.49 0.51 0.53 0.53 0.54 0.54 0.54 0.55 0.56 0.57
0.27 0.21 0.23 0.20 0.16 0.14 0.16 0.16 0.18 0.20 0.19 0.17 0.16 0.16 0.15 0.14 0.14 0.15 0.14 0.16 0.17 0.16 0.17 0.18 0.16 0.17 0.22 0.25 0.25 0.25 0.25 0.21 0.20 0.19 0.19 0.19 0.20 0.22 0.21 0.18 0.17 0.17 0.17 0.17 0.17 0.17 0.17 0.17 0.17 0.17 0.17 0.17 0.18 0.18 0.17 0.17 0.18 0.19 0.19 0.20 0.21 0.23 0.25 0.27 0.28 0.30 0.31 0.33 0.36 0.38 0.38 0.38 0.39 0.42 0.43 0.45 0.46 0.48 0.51 0.53 0.53 0.53 0.54 0.55 0.55 0.56
0.21 0.19 0.16 0.16 0.13 0.12 0.14 0.16 0.16 0.16 0.15 0.13 0.12 0.12 0.13 0.14 0.15 0.16 0.18 0.18 0.16 0.17 0.14 0.12 0.12 0.16 0.19 0.22 0.19 0.19 0.20 0.19 0.18 0.18 0.18 0.18 0.21 0.22 0.20 0.19 0.18 0.17 0.17 0.17 0.18 0.18 0.18 0.18 0.18 0.18 0.18 0.18 0.18 0.18 0.18 0.18 0.17 0.17 0.18 0.19 0.19 0.20 0.21 0.23 0.24 0.24 0.24 0.27 0.30 0.33 0.34 0.35 0.35 0.35 0.37 0.40 0.43 0.45 0.46 0.48 0.49 0.50 0.50 0.51 0.53 0.54
0.23 0.20 0.18 0.20 0.13 0.13 0.16 0.17 0.17 0.14 0.09 0.08 0.12 0.15 0.14 0.12 0.12 0.11 0.11 0.11 0.13 0.15 0.13 0.16 0.16 0.18 0.18 0.19 0.16 0.16 0.17 0.17 0.18 0.19 0.19 0.19 0.19 0.20 0.20 0.20 0.19 0.18 0.18 0.18 0.19 0.19 0.18 0.19 0.18 0.18 0.18 0.18 0.19 0.19 0.19 0.18 0.18 0.18 0.19 0.18 0.17 0.16 0.17 0.18 0.19 0.20 0.22 0.23 0.25 0.27 0.29 0.31 0.32 0.32 0.33 0.35 0.38 0.41 0.43 0.44 0.44 0.46 0.47 0.48 0.49 0.50
0.21 0.21 0.19 0.21 0.16 0.14 0.17 0.17 0.13 0.09 0.08 0.14 0.18 0.18 0.16 0.14 0.13 0.11 0.12 0.13 0.14 0.15 0.16 0.16 0.17 0.17 0.18 0.19 0.18 0.18 0.19 0.19 0.21 0.21 0.19 0.21 0.22 0.21 0.20 0.19 0.18 0.18 0.18 0.18 0.18 0.18 0.18 0.19 0.19 0.19 0.19 0.18 0.19 0.18 0.18 0.17 0.17 0.17 0.17 0.17 0.17 0.16 0.16 0.16 0.16 0.16 0.18 0.19 0.22 0.23 0.25 0.26 0.27 0.28 0.30 0.32 0.33 0.35 0.37 0.39 0.42 0.43 0.45 0.46 0.46 0.47
0.17 0.17 0.18 0.18 0.19 0.18 0.15 0.14 0.09 0.08 0.14 0.17 0.18 0.16 0.17 0.16 0.16 0.13 0.12 0.14 0.15 0.16 0.18 0.19 0.21 0.20 0.19 0.19 0.19 0.20 0.20 0.21 0.22 0.22 0.20 0.21 0.21 0.21 0.20 0.19 0.18 0.18 0.18 0.18 0.18 0.18 0.18 0.18 0.18 0.18 0.18 0.19 0.19 0.18 0.17 0.16 0.17 0.16 0.15 0.15 0.15 0.15 0.15 0.15 0.15 0.15 0.16 0.17 0.18 0.19 0.20 0.21 0.22 0.23 0.26 0.28 0.30 0.31 0.31 0.34 0.38 0.41 0.44 0.45 0.46 0.47
0.21 0.19 0.18 0.14 0.16 0.11 0.10 0.09 0.09 0.12 0.10 0.10 0.09 0.10 0.12 0.10 0.11 0.11 0.08 0.12 0.18 0.20 0.20 0.20 0.20 0.20 0.19 0.19 0.18 0.19 0.21 0.22 0.20 0.19 0.19 0.19 0.18 0.19 0.19 0.17 0.17 0.17 0.17 0.17 0.17 0.17 0.17 0.17 0.17 0.17 0.17 0.17 0.16 0.16 0.15 0.15 0.16 0.15 0.15 0.14 0.13 0.13 0.13 0.13 0.13 0.14 0.14 0.15 0.15 0.16 0.17 0.17 0.18 0.20 0.22 0.25 0.27 0.27 0.28 0.30 0.33 0.37 0.41 0.43 0.45 0.46
0.19 0.13 0.12 0.10 0.09 0.09 0.07 0.06 0.06 0.06 0.05 0.06 0.10 0.14 0.18 0.18 0.18 0.18 0.17 0.13 0.21 0.22 0.23 0.20 0.19 0.17 0.16 0.16 0.16 0.18 0.20 0.17 0.14 0.13 0.15 0.18 0.18 0.18 0.18 0.18 0.17 0.17 0.17 0.16 0.15 0.15 0.15 0.15 0.15 0.15 0.14 0.14 0.13 0.13 0.14 0.14 0.14 0.13 0.12 0.12 0.12 0.12 0.12 0.12 0.12 0.12 0.13 0.13 0.14 0.14 0.14 0.15 0.15 0.16 0.19 0.22 0.23 0.24 0.26 0.27 0.29 0.31 0.35 0.39 0.42 0.44
0.14 0.15 0.14 0.11 0.09 0.10 0.09 0.08 0.06 0.06 0.07 0.15 0.15 0.17 0.18 0.20 0.19 0.21 0.17 0.12 0.18 0.22 0.21 0.20 0.16 0.15 0.15 0.15 0.15 0.17 0.15 0.12 0.10 0.11 0.12 0.15 0.16 0.16 0.14 0.13 0.14 0.14 0.14 0.14 0.14 0.13 0.14 0.14 0.14 0.14 0.14 0.13 0.12 0.12 0.13 0.13 0.13 0.12 0.12 0.11 0.11 0.11 0.10 0.10 0.10 0.11 0.11 0.12 0.13 0.13 0.13 0.13 0.14 0.15 0.17 0.19 0.20 0.21 0.23 0.24 0.26 0.27 0.30 0.33 0.38 0.41
0.13 0.13 0.14 0.12 0.11 0.11 0.10 0.08 0.07 0.09 0.10 0.15 0.17 0.18 0.19 0.21 0.20 0.18 0.09 0.10 0.19 0.19 0.17 0.16 0.14 0.13 0.13 0.14 0.14 0.14 0.12 0.09 0.09 0.09 0.11 0.12 0.13 0.14 0.13 0.13 0.13 0.13 0.14 0.14 0.14 0.15 0.15 0.15 0.14 0.13 0.13 0.12 0.12 0.13 0.13 0.13 0.12 0.11 0.11 0.11 0.11 0.10 0.10 0.10 0.10 0.11 0.11 0.11 0.11 0.11 0.11 0.12 0.12 0.14 0.16 0.16 0.18 0.19 0.20 0.22 0.24 0.24 0.25 0.27 0.31 0.35
0.12 0.13 0.14 0.10 0.10 0.10 0.11 0.10 0.11 0.12 0.16 0.18 0.18 0.18 0.18 0.19 0.16 0.10 0.07 0.11 0.16 0.17 0.16 0.14 0.13 0.12 0.12 0.12 0.13 0.11 0.12 0.12 0.11 0.11 0.12 0.13 0.14 0.14 0.15 0.15 0.15 0.15 0.14 0.14 0.15 0.16 0.15 0.15 0.14 0.13 0.12 0.12 0.12 0.12 0.12 0.12 0.12 0.11 0.11 0.11 0.10 0.09 0.10 0.11 0.11 0.11 0.11 0.11 0.10 0.10 0.11 0.11 0.11 0.12 0.14 0.15 0.15 0.16 0.17 0.18 0.20 0.22 0.23 0.24 0.26 0.30
0.10 0.12 0.13 0.14 0.11 0.10 0.11 0.10 0.10 0.12 0.15 0.18 0.19 0.18 0.18 0.15 0.09 0.08 0.14 0.16 0.15 0.14 0.14 0.13 0.12 0.12 0.13 0.12 0.12 0.13 0.12 0.13 0.14 0.14 0.14 0.14 0.14 0.14 0.15 0.15 0.16 0.15 0.16 0.16 0.16 0.16 0.15 0.15 0.14 0.13 0.13 0.12 0.12 0.12 0.12 0.12 0.11 0.11 0.11 0.10 0.10 0.10 0.11 0.11 0.12 0.11 0.11 0.11 0.10 0.10 0.10 0.10 0.11 0.12 0.13 0.14 0.14 0.14 0.14 0.15 0.17 0.19 0.21 0.23 0.23 0.25
0.10 0.10 0.09 0.09 0.11 0.13 0.12 0.10 0.09 0.07 0.12 0.17 0.17 0.17 0.18 0.12 0.11 0.14 0.14 0.14 0.13 0.12 0.12 0.13 0.12 0.12 0.13 0.13 0.13 0.14 0.14 0.14 0.14 0.14 0.15 0.15 0.15 0.14 0.15 0.15 0.16 0.16 0.16 0.15 0.15 0.15 0.16 0.15 0.13 0.13 0.12 0.12 0.12 0.12 0.12 0.12 0.11 0.10 0.10 0.10 0.10 0.11 0.11 0.11 0.12 0.11 0.11 0.11 0.10 0.10 0.10 0.10 0.11 0.12 0.12 0.12 0.12 0.12 0.12 0.13 0.14 0.16 0.17 0.19 0.20 0.21
0.14 0.10 0.10 0.10 0.13 0.09 0.10 0.09 0.08 0.12 0.14 0.16 0.14 0.11 0.13 0.13 0.14 0.14 0.13 0.12 0.12 0.13 0.12 0.13 0.13 0.13 0.14 0.14 0.14 0.14 0.14 0.14 0.14 0.15 0.15 0.16 0.16 0.16 0.16 0.16 0.17 0.17 0.17 0.17 0.16 0.16 0.16 0.14 0.14 0.13 0.12 0.12 0.12 0.12 0.12 0.12 0.11 0.10 0.10 0.09 0.10 0.11 0.11 0.11 0.11 0.11 0.10 0.10 0.10 0.10 0.10 0.10 0.10 0.11 0.11 0.11 0.11 0.11 0.11 0.11 0.12 0.13 0.14 0.16 0.17 0.19
0.13 0.11 0.11 0.09 0.12 0.12 0.10 0.11 0.14 0.16 0.15 0.15 0.15 0.15 0.14 0.14 0.15 0.15 0.14 0.13 0.12 0.12 0.14 0.14 0.14 0.14 0.15 0.15 0.15 0.15 0.14 0.15 0.15 0.16 0.16 0.16 0.16 0.16 0.16 0.16 0.16 0.16 0.17 0.16 0.16 0.15 0.15 0.14 0.13 0.12 0.12 0.12 0.12 0.11 0.12 0.12 0.11 0.10 0.10 0.10 0.11 0.11 0.11 0.11 0.10 0.10 0.10 0.10 0.09 0.09 0.09 0.09 0.09 0.09 0.09 0.10 0.10 0.10 0.10 0.11 0.11 0.12 0.12 0.14 0.14 0.16
0.14 0.14 0.15 0.14 0.13 0.15 0.15 0.14 0.14 0.15 0.14 0.14 0.15 0.16 0.15 0.15 0.16 0.16 0.15 0.14 0.14 0.14 0.15 0.14 0.15 0.15 0.16 0.17 0.16 0.16 0.16 0.16 0.16 0.16 0.17 0.17 0.16 0.16 0.16 0.16 0.16 0.16 0.16 0.16 0.15 0.14 0.14 0.13 0.12 0.12 0.11 0.11 0.11 0.11 0.11 0.11 0.11 0.10 0.10 0.11 0.11 0.11 0.11 0.10 0.10 0.09 0.09 0.08 0.08 0.08 0.08 0.08 0.08 0.07 0.07 0.08 0.09 0.09 0.09 0.10 0.10 0.11 0.12 0.12 0.13 0.14
0.13 0.14 0.14 0.12 0.12 0.12 0.09 0.10 0.12 0.12 0.13 0.14 0.14 0.15 0.16 0.17 0.16 0.16 0.16 0.16 0.16 0.16 0.16 0.17 0.17 0.16 0.16 0.17 0.17 0.16 0.16 0.17 0.17 0.17 0.17 0.17 0.16 0.15 0.15 0.15 0.15 0.15 0.14 0.13 0.13 0.13 0.12 0.12 0.11 0.11 0.11 0.10 0.10 0.11 0.11 0.11 0.11 0.11 0.11 0.10 0.10 0.10 0.10 0.09 0.08 0.08 0.08 0.07 0.07 0.07 0.08 0.07 0.07 0.07 0.07 0.07 0.08 0.09 0.09 0.10 0.10 0.11 0.11 0.12 0.12 0.12
0.11 0.15 0.13 0.12 0.12 0.11 0.10 0.11 0.12 0.14 0.14 0.15 0.15 0.15 0.15 0.16 0.17 0.17 0.17 0.18 0.18 0.18 0.18 0.18 0.18 0.17 0.18 0.17 0.18 0.18 0.17 0.18 0.17 0.17 0.16 0.15 0.15 0.14 0.14 0.14 0.14 0.13 0.12 0.12 0.12 0.12 0.11 0.11 0.11 0.10 0.10 0.10 0.10 0.10 0.10 0.10 0.10 0.10 0.10 0.10 0.10 0.09 0.08 0.08 0.07 0.07 0.07 0.07 0.07 0.07 0.07 0.07 0.07 0.07 0.07 0.07 0.07 0.08 0.08 0.09 0.10 0.10 0.10 0.11 0.11 0.12
0.14 0.16 0.11 0.13 0.12 0.12 0.14 0.13 0.14 0.15 0.15 0.15 0.15 0.16 0.17 0.17 0.17 0.17 0.18 0.19 0.19 0.18 0.18 0.19 0.20 0.19 0.19 0.19 0.19 0.19 0.17 0.16 0.17 0.17 0.15 0.14 0.13 0.13 0.13 0.12 0.12 0.11 0.11 0.11 0.11 0.11 0.11 0.10 0.10 0.10 0.10 0.09 0.10 0.10 0.09 0.09 0.09 0.09 0.09 0.09 0.08 0.08 0.08 0.07 0.07 0.07 0.07 0.07 0.07 0.07 0.07 0.07 0.07 0.07 0.07 0.07 0.07 0.08 0.08 0.09 0.10 0.10 0.11 0.12 0.13 0.13
0.15 0.12 0.14 0.14 0.11 0.10 0.10 0.10 0.13 0.12 0.11 0.12 0.14 0.15 0.17 0.18 0.18 0.18 0.18 0.18 0.19 0.19 0.19 0.19 0.19 0.20 0.19 0.19 0.19 0.18 0.16 0.16 0.15 0.15 0.13 0.13 0.12 0.11 0.11 0.11 0.11 0.11 0.10 0.11 0.11 0.10 0.10 0.10 0.10 0.10 0.09 0.09 0.09 0.09 0.09 0.08 0.08 0.08 0.08 0.08 0.08 0.08 0.07 0.07 0.07 0.07 0.07 0.08 0.08 0.08 0.08 0.08 0.08 0.08 0.08 0.08 0.08 0.08 0.08 0.09 0.10 0.12 0.12 0.12 0.13 0.15
0.14 0.13 0.14 0.13 0.11 0.09 0.11 0.13 0.15 0.15 0.15 0.15 0.15 0.17 0.18 0.18 0.18 0.18 0.18 0.18 0.19 0.20 0.20 0.19 0.18 0.18 0.18 0.18 0.18 0.16 0.15 0.14 0.13 0.13 0.12 0.11 0.10 0.11 0.11 0.11 0.10 0.10 0.09 0.09 0.09 0.09 0.09 0.09 0.09 0.09 0.09 0.09 0.09 0.08 0.08 0.08 0.07 0.07 0.08 0.08 0.09 0.09 0.10 0.11 0.11 0.11 0.12 0.12 0.12 0.12 0.12 0.12 0.11 0.10 0.10 0.09 0.09 0.09 0.09 0.09 0.09 0.10 0.11 0.11 0.11 0.12
Wind_Speed
25 26 27 27 27 27 27 28 29 29 27 28 29 30 31 32 32 30 30 30 27 30 32 31 34 34 33 32 31 31 31 30 29 27 27 28 28 28 27 27 27 27 27 25 25 25 25 26 26 25 25 25 26 26 27 28 29 30 30 31 31 31 32 32 32 32 32 32 33 33 34 35 35 36 36 37 37 37 37 37 37 37 37 37 37 37
26 28 29 29 28 27 27 27 28 28 28 29 30 31 31 31 33 31 30 30 26 27 30 29 32 33 33 32 31 31 29 26 25 23 25 28 28 28 26 26 25 25 25 23 23 24 24 25 24 23 22 22 24 25 26 27 27 28 29 30 31 31 31 31 32 33 33 33 34 34 34 34 35 35 36 36 37 37 37 37 37 38 38 38 37 38
28 30 30 28 26 24 24 24 25 27 28 29 28 30 30 30 31 30 28 27 24 26 29 30 32 33 33 33 31 27 23 23 25 25 27 29 28 26 23 22 23 23 22 22 23 24 23 22 21 21 20 21 22 23 25 26 27 27 28 29 30 30 31 31 32 32 33 34 34 35 35 34 34 35 35 36 36 37 37 37 38 38 39 39 38 38
29 29 29 27 24 24 26 25 26 27 27 28 28 29 31 29 29 29 27 26 25 26 28 30 33 32 30 28 24 22 22 23 27 29 28 27 24 23 21 20 21 21 22 23 24 23 20 19 19 20 20 20 21 23 23 25 26 27 27 28 28 29 30 30 31 32 33 33 34 35 35 35 35 35 35 36 36 37 37 38 38 39 39 39 39 39
30 29 26 25 25 25 27 27 26 28 27 27 27 28 30 29 27 29 27 26 27 27 26 29 32 28 23 21 21 22 24 25 27 28 25 21 18 18 19 19 19 20 22 24 24 22 19 18 19 20 20 21 22 23 24 24 25 26 27 28 28 28 28 29 30 31 32 33 33 34 34 34 35 35 35 36 36 37 38 38 38 39 39 39 39 39
30 28 25 24 24 24 25 26 25 25 27 27 26 27 29 28 28 28 27 26 26 25 24 26 27 25 22 22 25 26 27 27 26 23 20 18 15 15 17 19 20 21 22 23 23 21 19 19 20 21 21 22 23 24 24 25 25 26 27 28 28 28 28 29 29 30 31 32 32 33 33 34 35 35 35 36 36 36 37 38 38 39 39 39 39 39
28 26 23 23 23 22 23 25 23 22 24 26 25 25 26 27 27 28 27 26 25 25 26 25 24 27 28 26 27 27 28 28 24 18 17 17 15 16 18 20 23 24 24 23 21 20 19 19 20 21 22 24 25 25 25 25 26 26 27 27 28 28 28 28 29 29 30 31 32 32 33 34 34 35 35 36 36 36 37 38 38 39 39 39 39 39
25 23 22 21 22 22 23 24 22 20 22 26 25 23 24 25 26 26 25 26 27 28 29 26 23 29 32 27 27 28 26 24 20 17 17 17 18 21 22 23 24 24 24 22 21 20 20 21 21 23 24 25 26 26 26 27 27 26 26 26 26 27 28 29 29 30 31 31 32 33 33 34 34 35 35 36 36 36 37 37 38 38 39 39 39 40
23 23 23 22 22 23 23 23 22 20 23 26 25 23 23 24 25 25 25 26 28 28 29 26 23 27 31 29 27 26 23 19 17 18 20 21 24 26 26 26 25 24 23 21 21 21 22 23 24 24 25 26 26 26 28 28 27 27 26 26 26 26 27 28 30 31 31 32 33 33 34 34 34 35 35 35 35 36 37 38 38 38 38 39 39 40
24 24 24 22 23 24 24 23 22 22 24 25 24 24 24 25 25 25 26 27 27 28 29 27 25 26 31 31 25 23 21 19 20 23 24 26 28 29 29 28 25 24 23 22 23 23 23 25 26 26 26 26 26 27 27 26 26 26 26 26 26 27 27 28 29 30 31 32 32 33 34 34 34 34 34 35 35 36 37 38 38 38 38 39 39 40
26 26 25 25 25 24 23 23 24 24 24 24 24 25 26 26 27 27 27 27 25 29 31 30 27 26 29 29 24 23 22 21 24 28 29 29 31 31 29 27 26 25 25 25 26 27 27 28 28 28 27 27 28 27 26 25 25 24 25 25 26 27 27 28 29 30 31 32 32 33 33 34 34 34 35 34 35 35 36 37 38 38 38 39 39 40
28 27 28 28 27 24 23 25 26 26 25 25 26 26 26 27 26 26 27 25 25 29 31 29 27 26 30 30 26 26 26 26 28 30 31 32 33 32 28 28 28 28 29 29 29 30 30 29 29 28 27 28 28 27 26 25 24 24 24 24 25 26 27 29 30 31 32 32 33 33 33 34 35 35 35 36 35 36 36 37 37 38 38 39 39 40
29 30 30 29 28 27 26 27 28 28 27 27 27 26 25 26 25 26 27 25 26 30 30 28 26 28 35 36 33 33 35 34 31 30 32 33 33 32 29 29 30 31 31 30 29 29 28 27 27 27 27 28 28 27 26 25 24 24 24 24 25 26 27 28 30 31 32 33 33 33 33 34 35 35 36 36 37 37 37 37 38 38 39 39 39 40
31 32 31 30 31 30 28 29 30 30 29 29 29 27 25 25 26 27 27 27 29 31 31 29 28 31 37 38 36 36 37 35 33 34 35 33 31 31 30 31 32 32 31 30 28 28 26 26 26 26 26 26 27 27 26 25 25 25 25 26 26 27 28 28 29 30 32 33 34 34 34 34 34 35 36 37 37 38 38 39 39 39 39 39 40 40
32 34 33 32 32 31 31 32 31 31 31 31 30 28 28 28 27 28 27 29 31 31 29 29 29 32 35 37 37 37 38 37 37 38 35 31 30 31 32 33 32 31 31 29 28 26 26 26 27 26 26 26 26 26 26 26 27 27 28 28 29 30 29 28 29 29 30 31 32 33 33 34 34 35 36 37 38 38 39 40 40 40 40 40 40 40
32 36 36 33 32 31 33 34 32 30 32 33 31 30 32 31 30 31 31 32 32 31 31 31 33 36 39 42 44 43 42 39 37 35 31 30 31 31 32 33 31 30 29 28 27 27 28 28 28 28 28 28 28 28 27 28 28 29 30 30 30 30 29 28 28 29 29 30 31 31 32 32 33 34 35 36 38 39 39 40 41 41 41 41 40 40
33 35 35 34 34 34 33 33 32 32 32 32 31 33 34 32 31 33 34 33 32 33 34 35 38 41 41 44 45 42 40 37 34 32 31 32 32 31 31 31 30 29 29 29 29 30 30 31 31 31 31 32 32 32 31 31 31 30 30 29 29 28 28 28 27 28 29 30 31 31 31 32 32 33 35 36 37 38 39 41 41 41 41 41 40 40
34 37 37 36 37 37 35 33 34 34 33 32 33 34 33 32 32 32 32 31 32 34 35 36 40 42 39 39 41 40 38 35 33 32 33 33 32 31 31 30 30 31 31 32 32 32 32 33 33 34 34 34 34 34 34 34 33 32 31 30 29 28 28 28 28 28 29 29 30 31 32 33 33 33 34 35 36 37 39 40 41 42 42 41 41 41
35 37 38 36 37 36 34 33 35 35 34 33 34 35 33 32 34 32 31 31 33 35 34 34 38 39 37 39 41 40 38 36 36 36 35 34 32 32 32 32 32 33 33 34 34 34 34 35 35 36 37 36 36 36 36 35 35 33 32 32 31 30 30 30 30 30 30 31 31 32 33 34 35 35 35 36 36 37 38 39 40 41 41 41 41 41
34 34 35 34 35 35 33 34 36 36 35 34 34 35 35 35 35 34 32 32 33 35 34 33 33 33 35 38 38 37 37 38 39 38 36 35 33 33 33 34 35 35 36 36 37 37 37 37 37 38 38 38 37 37 36 35 34 34 34 34 33 33 32 32 32 32 33 33 33 33 34 35 36 37 37 38 37 38 38 38 38 39 40 40 41 42
34 35 36 36 37 37 37 37 38 37 36 35 36 37 37 36 35 35 35 34 34 34 34 33 34 34 36 36 35 35 36 37 37 36 36 35 34 34 34 35 36 36 37 37 37 38 38 37 37 37 37 38 37 37 36 35 35 34 35 35 35 35 35 35 34 34 35 35 35 35 35 36 37 37 38 39 39 40 39 39 38 38 38 39 40 41
35 36 38 38 38 39 41 40 38 39 38 37 37 38 38 37 36 35 36 36 37 36 35 36 38 37 36 35 34 35 35 34 34 33 34 35 35 35 36 36 37 37 37 37 37 37 37 37 37 37 37 38 38 38 38 37 37 36 37 37 37 37 36 37 37 37 37 37 37 37 36 36 37 38 39 40 40 41 41 41 40 40 40 40 40 40
36 36 39 42 41 42 43 41 40 39 39 39 39 38 38 37 36 36 37 37 38 38 38 39 39 38 35 34 34 33 31 30 30 30 30 32 33 34 36 36 37 37 37 38 38 39 39 39 39 39 39 39 39 39 39 39 39 39 39 39 39 39 39 39 39 39 39 39 38 38 37 37 37 38 39 40 41 42 42 42 42 42 43 43 42 42
36 35 39 42 42 41 42 41 40 39 38 40 41 39 38 38 39 40 40 39 38 39 39 38 38 36 33 31 30 27 26 25 25 26 27 29 31 33 35 36 37 38 39 40 40 41 41 41 41 41 41 41 40 40 41 41 42 42 42 42 42 42 42 42 42 42 42 42 41 41 40 40 40 40 40 41 42 43 43 43 43 44 45 45 46 45
36 36 37 38 38 38 39 39 39 38 38 39 40 39 38 39 39 40 39 37 35 36 37 37 36 34 32 29 26 25 26 27 27 28 29 31 33 34 35 37 39 40 41 41 42 42 42 42 43 43 42 42 42 42 42 43 43 44 44 44 44 44 44 44 45 45 45 44 44 44 44 43 42 42 42 42 43 44 44 45 45 45 45 46 47 47
37 37 38 38 37 37 38 38 37 37 37 37 37 37 37 36 37 37 37 36 35 36 37 35 34 35 34 32 31 31 32 33 33 34 35 35 36 37 38 39 41 41 42 43 43 43 43 43 43 43 43 43 44 44 44 44 44 45 45 45 45 46 46 46 46 46 46 46 46 46 46 45 44 43 43 43 44 44 45 46 47 47 47 47 48 48
36 38 38 40 40 40 41 41 39 39 39 39 39 39 39 38 38 37 37 38 39 39 38 37 39 41 40 38 37 37 37 38 38 38 38 38 39 39 40 41 42 42 43 44 44 44 44 44 44 44 45 45 46 46 45 45 45 45 45 46 46 46 47 47 47 47 47 47 47 47 47 47 46 45 44 44 44 44 44 45 47 49 50 50 50 51
39 41 42 43 44 44 44 45 43 43 44 44 44 45 44 42 41 41 42 43 42 39 39 41 43 43 42 40 39 40 41 41 42 42 42 42 41 42 42 42 43 43 44 44 44 45 45 45 46 46 46 47 47 46 46 46 45 45 45 46 46 47 48 48 48 47 47 47 48 47 47 47 47 47 46 45 44 44 44 45 47 49 50 51 52 53
40 43 44 45 46 46 46 47 46 45 45 45 46 46 46 45 44 45 47 46 44 42 43 45 46 47 45 42 42 42 42 42 42 43 43 43 43 43 43 43 43 43 43 44 44 45 45 46 46 47 47 47 47 46 46 46 46 47 47 47 47 47 48 48 48 48 48 48 48 48 48 48 48 48 47 46 45 45 45 45 46 48 50 52 53 53
39 41 42 43 44 45 44 45 44 43 44 44 44 44 44 46 47 47 47 46 46 46 47 47 49 49 45 42 42 42 42 42 42 42 43 43 43 43 42 42 43 43 43 44 45 45 46 46 46 47 47 47 47 48 48 48 48 48 48 48 48 48 48 48 49 49 49 48 49 49 48 48 48 48 48 47 46 46 46 46 47 48 49 51 52 53
39 41 40 40 42 43 43 43 42 42 42 44 44 44 45 46 47 47 47 46 46 47 47 47 48 47 43 41 42 41 40 41 42 42 43 43 43 43 43 43 43 44 45 45 46 46 46 47 47 48 48 48 49 49 49 49 50 49 49 49 49 49 49 49 49 49 50 49 49 49 48 48 48 48 48 47 47 47 47 48 48 48 49 50 52 53
39 41 41 40 42 45 45 45 44 42 43 45 47 47 48 49 48 47 47 46 46 47 48 47 45 43 41 40 41 40 40 40 41 41 42 42 42 42 43 44 44 45 46 46 47 47 47 48 48 48 49 49 49 50 50 50 50 50 50 50 50 50 50 50 50 50 50 50 50 50 49 49 49 49 49 49 49 49 49 50 50 50 50 51 52 53
40 41 41 41 42 44 44 43 41 40 42 45 47 47 48 48 48 47 47 46 44 44 45 45 43 41 40 39 39 39 39 40 41 41 42 43 43 43 44 45 45 46 46 47 47 47 48 48 48 49 50 50 51 51 52 52 52 52 52 51 51 52 52 52 52 52 52 52 51 51 51 51 51 51 51 51 51 51 51 51 52 52 52 53 53 53
41 41 41 41 40 42 43 41 40 40 42 45 44 43 44 46 46 46 45 44 41 40 41 41 40 39 39 39 39 40 40 40 41 42 42 43 43 43 44 45 45 46 46 47 47 48 48 49 50 51 52 52 53 53 53 53 53 53 53 53 53 54 54 54 55 55 55 54 53 52 52 52 52 53 53 53 53 53 53 53 53 53 53 54 53 53
43 42 42 41 40 42 42 40 40 41 43 44 43 41 42 43 42 42 41 40 39 38 38 38 38 39 39 40 40 41 41 41 41 42 42 42 42 42 43 44 45 46 47 47 48 49 50 51 52 52 53 53 54 54 54 54 54 54 54 54 55 55 55 55 56 56 56 55 55 54 54 53 53 54 54 54 54 55 55 55 55 54 54 54 54 53
44 44 43 42 42 42 41 41 42 42 43 44 43 42 42 40 39 39 41 41 41 39 38 38 38 39 39 39 40 40 40 41 40 41 43 42 42 42 43 44 45 46 47 47 48 49 50 51 51 52 53 53 54 54 54 55 55 55 55 55 55 56 56 56 56 56 56 56 56 56 56 56 56 56 55 55 55 55 55 55 55 54 54 54 53 53
43 43 43 43 43 42 42 43 44 44 44 45 44 42 40 39 39 39 40 40 39 37 36 36 37 37 37 38 39 39 39 40 40 42 43 43 42 43 44 45 46 47 48 49 50 51 51 52 52 53 54 54 55 56 56 56 56 56 56 56 56 56 56 56 56 56 56 56 56 56 57 57 57 57 57 56 56 56 55 55 54 54 54 53 53 53
41 42 41 41 41 40 39 40 40 41 41 41 40 39 37 36 36 36 37 38 37 36 36 35 36 37 37 38 40 39 39 40 41 43 43 43 44 44 45 46 47 48 49 50 51 51 52 52 52 53 54 55 56 56 56 57 57 57 58 58 58 58 58 57 57 57 57 57 57 57 57 57 57 57 57 56 56 56 55 55 54 54 53 53 53 53
38 38 38 39 39 38 37 37 37 38 38 36 35 35 35 34 34 34 35 37 36 35 35 35 36 38 38 39 40 39 38 41 43 43 44 44 45 45 46 47 48 48 49 50 50 51 51 52 53 53 54 55 56 56 56 56 57 58 58 58 58 58 58 58 58 58 58 58 58 58 58 58 58 58 58 58 57 56 56 56 55 54 54 54 54 54
34 35 36 37 38 38 38 38 38 38 37 34 33 33 34 34 33 33 34 35 34 34 35 36 38 39 39 40 40 39 39 41 43 44 44 44 44 45 46 47 47 48 49 49 50 51 51 52 53 54 55 55 55 56 56 56 57 57 58 58 58 58 59 59 59 59 59 59 59 59 59 59 59 59 59 59 59 58 58 57 57 56 55 55 55 55
33 33 33 34 36 38 38 38 38 37 36 35 34 33 33 33 33 34 35 35 33 35 36 37 39 40 40 40 39 39 41 43 44 45 45 44 45 46 46 47 48 48 49 50 50 51 52 52 53 54 55 55 56 56 55 56 57 57 58 58 59 59 59 59 60 60 60 60 60 60 60 59 59 60 60 60 60 60 59 59 58 58 57 56 56 56
31 31 31 33 34 35 36 36 36 36 36 34 32 32 32 32 33 34 34 32 32 35 36 37 39 40 40 40 40 41 43 44 44 45 45 45 46 46 46 47 48 48 49 50 51 52 52 53 54 55 56 56 55 55 55 56 57 58 58 59 59 60 60 60 61 61 61 61 61 61 62 61 61 60 60 60 60 61 61 60 59 59 59 58 57 57
30 29 30 32 31 31 32 33 32 33 33 30 28 29 30 30 31 32 32 33 35 37 38 38 39 40 40 40 41 42 43 44 44 44 44 45 45 46 47 47 48 49 50 51 52 53 53 54 55 55 56 56 55 55 56 57 58 59 59 60 60 60 60 61 62 62 63 63 63 63 63 63 62 62 61 61 61 61 62 61 60 60 59 59 58 57
29 28 30 31 30 29 30 31 31 31 31 29 28 29 30 31 33 34 35 37 38 38 38 38 38 39 39 39 40 41 42 42 43 43 44 45 45 46 47 48 48 50 50 51 53 53 53 54 55 56 56 56 56 56 56 57 59 60 61 62 62 61 62 63 63 63 64 64 64 64 64 63 63 63 63 63 63 62 62 62 61 61 60 59 59 58
29 28 29 31 30 28 30 33 32 31 31 30 31 32 33 35 37 36 37 37 37 37 36 36 37 38 38 38 40 41 41 42 42 43 44 44 45 46 47 48 49 50 50 51 53 53 53 54 55 56 57 57 57 57 57 58 59 61 63 63 63 63 64 64 65 65 66 66 66 66 66 65 65 65 64 64 64 64 63 63 62 61 61 59 59 58
29 28 28 30 31 31 33 35 33 32 33 34 35 36 36 37 36 35 35 36 36 36 36 36 37 38 38 38 39 40 41 42 42 43 43 44 45 46 47 48 49 50 51 52 53 53 53 54 55 56 58 58 58 59 59 60 61 62 64 64 64 65 65 66 66 67 67 68 68 68 67 67 67 66 66 66 65 65 64 63 63 62 61 60 59 59
29 28 29 31 32 33 34 34 31 32 35 35 35 36 35 35 35 34 34 35 36 36 36 36 37 38 38 38 39 40 41 41 42 42 43 43 45 46 47 48 49 50 51 52 52 53 54 55 56 57 59 60 61 61 61 62 63 64 64 65 65 66 66 67 67 68 68 68 68 68 68 68 68 68 67 66 66 65 65 64 63 63 62 61 60 59
27 27 28 31 32 33 35 35 32 32 35 35 34 35 35 35 36 35 35 35 35 36 36 36 36 37 37 37 38 39 40 40 40 41 42 43 45 46 47 48 50 51 52 52 53 54 55 56 57 59 60 61 62 63 63 64 65 65 65 65 66 66 67 68 68 68 69 69 68 68 67 67 68 67 67 66 66 66 66 65 64 64 63 62 60 59
27 27 28 29 31 33 35 34 32 32 34 34 34 35 34 35 36 35 35 34 34 35 35 35 35 36 36 36 36 37 39 40 40 41 42 44 45 46 48 49 50 51 52 53 54 55 56 57 59 60 62 63 64 64 65 66 66 66 66 66 67 67 68 69 68 68 68 67 66 66 65 65 65 65 65 65 65 65 65 66 65 65 65 63 62 61
27 29 29 28 32 34 33 31 31 31 33 33 33 33 33 33 34 34 34 33 33 34 34 34 35 35 34 35 36 36 38 40 40 41 43 45 46 47 49 50 51 52 53 54 55 57 58 59 60 61 63 64 64 65 66 67 66 66 66 66 66 66 66 66 66 65 64 63 62 62 61 61 62 62 62 63 63 64 65 65 66 66 66 66 65 63
29 31 30 29 33 35 34 33 32 31 33 34 34 33 33 32 33 33 33 33 32 33 33 34 35 35 34 35 35 36 38 40 40 42 44 45 46 48 48 50 51 53 55 56 57 58 59 60 61 62 63 64 64 64 65 65 65 64 64 63 63 63 63 62 62 62 61 60 59 59 59 59 59 59 59 60 60 61 62 63 64 65 65 66 65 64
Wind_Direction
277 277 277 278 280 278 276 276 278 284 287 285 285 284 285 286 286 288 289 289 290 288 285 283 285 287 288 288 289 288 288 288 289 291 291 290 290 289 288 287 288 289 289 291 292 292 291 291 290 288 286 284 282 280 276 273 270 268 266 264 262 262 261 259 257 255 253 252 252 252 252 252 253 252 251 251 251 251 251 251 250 250 249 249 248 248
277 274 275 276 279 280 280 280 281 284 285 284 284 285 285 285 287 289 289 289 289 286 286 288 288 289 289 289 288 287 288 290 291 291 290 289 289 288 289 290 290 290 291 293 294 294 293 293 293 293 291 288 285 282 278 275 273 270 268 266 264 263 262 259 257 255 254 254 253 253 254 253 253 252 251 251 251 251 251 250 250 250 249 248 248 248
277 275 276 277 280 284 284 283 282 281 282 283 284 285 285 286 289 289 288 291 291 286 288 291 290 291 290 289 288 286 287 289 289 288 287 286 287 288 291 292 292 293 294 296 297 297 296 295 295 296 296 293 289 286 281 277 275 273 271 269 267 264 262 260 258 256 255 255 255 255 255 255 254 254 252 251 251 250 250 250 249 249 248 247 248 248
275 277 278 277 278 280 281 282 282 282 282 282 283 284 284 287 290 287 289 293 291 287 289 291 292 292 291 291 290 287 287 289 289 288 286 286 287 290 291 290 292 295 297 301 303 301 298 297 295 295 295 295 292 289 285 280 277 275 273 271 268 266 264 262 259 257 257 256 256 256 256 256 256 256 255 253 252 251 250 250 249 249 248 247 248 247
275 278 280 280 278 276 277 280 280 281 282 281 280 280 283 286 285 283 289 295 291 288 289 293 295 292 291 295 295 293 295 295 291 290 291 293 291 289 290 291 293 297 299 302 304 300 296 294 293 293 293 294 294 290 286 283 279 277 274 272 270 268 265 263 260 259 258 258 256 256 257 256 256 256 255 253 252 251 250 250 250 249 247 247 247 247
277 279 279 281 281 277 275 278 278 277 279 281 278 276 278 282 283 284 290 294 293 289 289 296 297 288 286 291 292 296 301 299 294 295 297 297 292 288 291 294 297 301 302 300 300 298 294 291 292 293 292 294 296 292 287 285 282 278 276 273 270 269 267 264 261 259 259 258 257 256 255 255 255 255 254 253 252 251 250 250 250 249 248 247 247 247
280 283 280 277 277 275 274 277 278 275 276 280 280 277 277 280 283 284 287 289 287 286 288 293 290 285 287 288 288 294 299 298 299 302 298 292 292 291 292 297 300 304 306 302 300 298 294 290 292 292 291 294 296 292 288 287 284 281 277 273 270 269 267 265 262 259 259 259 258 257 256 256 255 255 255 254 253 252 251 251 250 249 248 247 247 247
280 284 283 277 275 273 273 277 276 272 274 278 280 280 278 279 279 280 283 283 282 285 289 287 284 285 287 286 289 293 294 296 298 298 296 294 298 298 297 300 301 302 305 304 301 300 296 294 294 291 291 296 296 292 289 288 285 282 278 274 271 269 267 265 262 260 259 260 260 260 259 258 258 257 257 256 254 253 251 250 250 249 248 247 247 247
280 278 276 274 274 273 273 275 273 271 277 279 279 280 278 278 277 277 279 279 282 286 285 282 283 284 283 283 290 294 291 291 292 294 299 300 302 304 304 304 303 302 303 302 300 298 297 296 296 293 294 298 297 293 291 289 286 283 278 275 271 269 267 265 264 263 262 262 262 262 261 260 260 259 258 257 255 254 252 251 250 249 248 247 247 247
281 277 273 272 273 272 272 276 273 272 277 279 278 281 282 281 280 279 278 278 281 282 277 276 279 281 282 283 285 288 285 279 284 295 298 299 303 307 307 306 305 304 303 303 301 300 298 296 294 295 299 301 298 295 292 289 286 283 279 277 274 272 270 268 266 265 264 264 264 263 262 261 261 260 259 258 256 254 253 251 251 250 249 248 248 247
280 280 277 274 273 272 274 278 277 276 279 280 281 284 285 284 282 280 278 278 279 277 275 273 271 274 281 282 279 279 278 275 285 296 297 299 304 307 306 304 303 302 301 301 300 301 301 299 297 299 302 304 302 298 294 290 286 283 280 278 277 275 273 271 269 267 266 265 264 263 262 261 261 260 259 258 257 255 253 252 251 251 250 249 249 248
280 278 278 277 274 274 277 279 280 282 281 280 281 283 284 283 283 281 279 279 275 275 278 275 270 268 271 275 278 278 278 280 286 292 294 298 302 303 303 302 300 300 300 300 300 299 300 301 301 302 303 305 305 303 300 296 292 288 284 281 279 277 274 272 271 269 268 267 265 265 263 262 261 260 259 258 257 256 254 253 252 252 252 251 250 249
278 275 277 279 276 274 276 278 281 283 281 279 278 278 280 280 281 280 278 277 274 274 278 277 272 268 267 271 276 277 281 284 286 288 290 293 297 298 300 300 300 301 301 301 300 298 298 300 300 301 304 306 306 306 305 302 298 294 291 288 284 281 277 275 272 270 269 268 267 266 265 263 262 261 260 259 258 258 257 256 255 254 253 252 250 249
279 278 277 278 277 273 272 275 279 280 278 276 274 273 273 275 278 278 277 279 277 276 277 275 271 271 272 273 275 275 279 283 285 287 288 289 292 294 296 298 299 299 299 298 297 297 298 298 298 299 303 306 307 307 307 304 301 298 295 292 290 286 282 278 275 273 271 269 268 267 265 264 263 261 261 260 260 259 259 258 257 256 254 253 252 250
278 280 276 274 276 272 270 274 277 279 277 275 274 273 272 273 275 277 277 277 278 278 277 273 270 270 272 274 275 275 277 281 284 286 288 289 291 292 294 296 296 296 295 294 294 295 296 296 298 299 300 303 305 306 306 306 303 300 297 295 293 290 285 282 279 276 274 271 269 268 267 265 263 262 262 262 261 261 260 259 258 257 256 255 253 251
276 277 277 277 277 273 273 277 279 279 277 275 275 273 274 274 274 276 276 275 277 278 274 271 270 270 273 276 277 278 280 282 285 287 290 291 292 293 294 293 293 293 293 291 292 293 294 295 297 297 297 298 300 301 303 304 304 301 300 298 295 292 288 284 281 279 277 275 272 270 268 267 265 264 263 262 261 261 260 259 258 258 257 256 254 252
277 278 279 280 280 277 276 279 278 276 274 275 274 273 276 278 276 277 279 277 277 276 273 271 273 275 277 278 278 279 283 284 285 287 290 292 294 294 292 288 288 290 290 290 290 291 291 293 294 294 294 295 297 298 299 300 300 299 299 297 296 295 292 288 285 282 280 278 276 275 273 270 268 266 264 263 262 261 260 259 258 258 257 256 254 253
278 278 277 277 278 279 277 278 279 277 273 273 274 275 279 280 278 277 280 281 277 275 275 273 272 276 278 277 278 281 283 284 284 286 288 291 293 291 287 286 287 289 289 289 290 290 291 292 293 294 294 295 296 297 298 298 297 296 296 296 296 296 295 292 289 285 282 280 278 276 275 274 271 269 267 266 264 263 261 259 258 257 256 255 254 253
279 280 279 276 276 279 280 277 277 277 275 274 275 277 278 277 277 277 276 278 277 276 278 275 271 273 274 275 279 281 281 282 283 285 286 288 287 285 283 284 285 286 287 287 288 290 291 291 293 294 295 296 297 297 297 297 296 296 296 296 295 294 293 292 290 288 286 282 279 277 275 274 273 271 270 268 266 264 262 260 258 257 255 255 254 253
280 279 278 279 278 279 280 277 275 276 278 277 277 277 276 274 276 276 274 276 276 276 278 276 273 273 273 275 279 280 279 279 281 283 283 283 282 281 281 281 283 285 286 286 287 288 290 291 292 293 294 295 295 295 295 295 295 296 296 295 295 294 292 290 289 288 287 285 282 280 277 275 274 272 271 269 268 265 263 261 259 257 255 254 254 253
279 276 275 279 279 276 276 275 274 274 276 276 274 274 275 275 276 277 275 273 274 275 276 276 275 275 277 279 278 277 278 279 279 279 280 281 282 282 283 284 285 287 288 288 287 288 288 289 290 291 292 292 292 293 293 293 293 294 294 294 294 293 292 290 288 287 287 285 284 281 279 277 275 273 271 270 268 266 264 262 259 257 256 255 254 253
277 276 275 277 276 273 274 275 275 274 274 274 273 272 273 274 275 276 275 272 272 273 274 276 277 277 278 280 278 276 277 277 277 277 278 281 283 284 286 286 287 287 288 288 288 288 288 288 288 289 290 290 291 291 292 292 291 291 291 291 291 290 290 289 287 286 286 286 284 282 280 278 277 275 273 270 268 266 264 262 260 258 256 255 254 254
275 275 275 274 274 274 275 275 274 273 274 274 274 273 274 274 273 272 274 275 274 272 273 275 276 277 278 278 277 276 275 275 276 276 277 280 283 285 287 288 288 288 288 289 289 289 289 290 290 290 290 290 289 289 289 289 289 289 289 289 288 288 288 287 286 285 285 285 285 283 282 280 278 276 274 271 269 266 264 262 260 258 257 255 255 254
276 275 274 275 276 276 276 276 275 273 274 274 274 273 273 273 272 272 274 276 276 273 273 275 275 276 277 275 273 273 274 275 276 276 277 279 282 285 286 287 288 289 289 290 290 289 290 290 290 291 291 290 289 288 288 288 288 288 288 288 287 287 287 286 285 284 284 284 284 283 282 281 280 278 275 271 269 266 265 263 261 259 258 256 255 254
276 275 275 277 278 278 277 277 277 276 275 274 274 274 274 274 274 275 275 276 275 272 271 272 274 274 274 272 271 272 274 275 276 278 279 280 281 282 283 284 286 287 288 289 289 289 289 290 290 290 290 290 290 289 288 288 287 287 287 287 286 286 286 285 284 283 282 282 282 282 282 282 281 279 277 274 271 267 265 263 262 260 259 257 256 255
276 274 274 274 275 276 277 276 276 276 276 275 276 276 275 274 274 276 277 275 274 273 271 271 274 274 272 273 276 278 279 278 278 279 279 279 279 280 281 283 284 285 286 287 288 288 288 289 289 289 290 290 289 289 289 288 288 287 287 286 286 285 285 285 284 283 282 282 281 281 281 281 281 280 279 277 274 271 267 264 261 260 260 259 258 256
277 275 273 273 273 274 276 277 277 277 277 276 276 275 275 275 274 275 275 272 273 275 273 271 274 276 275 276 279 280 281 281 280 280 280 280 280 280 281 282 283 284 285 286 286 287 287 288 288 288 289 289 289 289 289 288 287 287 286 285 285 285 285 285 284 283 282 281 280 280 279 279 279 279 279 277 275 273 270 266 263 261 260 260 259 258
276 276 274 273 273 274 276 277 277 278 277 277 277 276 275 274 273 272 271 271 274 276 273 273 275 277 277 277 279 280 281 281 281 280 280 279 279 280 281 282 283 284 284 284 285 285 286 286 287 288 288 288 288 288 288 287 287 286 285 284 284 284 284 284 283 283 282 281 280 278 278 278 277 278 278 277 276 274 272 269 266 263 261 260 259 259
275 275 275 275 275 275 275 276 277 276 276 276 275 275 274 273 272 271 271 272 273 273 274 276 277 276 277 278 278 279 280 280 280 279 279 279 280 281 281 282 283 284 283 283 284 284 285 286 286 287 287 287 287 287 287 286 286 285 285 284 284 283 283 283 282 282 281 281 279 278 278 277 277 277 277 277 276 274 272 271 269 267 264 261 260 260
275 276 276 276 276 276 275 276 276 275 275 275 274 273 273 273 272 272 273 273 273 272 274 277 276 277 278 277 277 277 277 278 279 279 279 279 279 280 281 281 282 282 282 283 283 284 284 285 285 286 286 287 287 286 286 285 285 285 285 284 284 283 283 282 282 281 281 280 279 279 278 278 277 277 277 277 276 274 272 271 271 269 267 265 262 261
276 276 277 277 277 276 275 275 275 275 275 275 274 274 274 273 273 274 274 274 274 274 275 275 276 277 278 277 277 276 276 277 278 278 280 279 278 278 279 280 281 282 283 283 283 284 284 284 285 285 285 286 286 286 286 286 285 285 285 285 284 284 284 283 282 281 281 280 279 279 278 278 277 277 277 276 275 274 273 272 271 271 269 267 265 263
277 277 279 279 276 275 276 276 276 276 276 274 273 273 273 274 274 274 274 274 275 276 277 276 276 277 276 277 277 276 275 277 277 278 280 280 278 278 278 279 282 283 283 283 283 284 284 284 284 285 285 285 286 286 286 286 286 285 285 286 285 284 283 282 282 282 281 281 280 279 278 277 277 277 276 276 275 275 274 274 273 272 271 270 268 266
277 277 278 278 276 276 276 276 276 277 275 272 271 273 273 273 274 274 274 275 275 276 276 276 276 277 276 276 277 276 275 276 277 278 279 279 278 278 278 279 282 283 283 283 284 284 284 284 285 285 285 286 286 286 287 287 286 286 286 286 285 285 284 283 283 283 282 282 281 279 278 277 277 276 276 276 276 276 275 275 275 275 274 272 271 269
275 275 276 277 277 277 277 278 278 275 272 273 274 275 275 274 274 275 275 276 276 276 276 276 276 276 276 275 275 275 275 276 277 278 279 279 279 278 279 280 282 284 284 284 285 285 285 285 286 286 287 287 287 287 288 287 287 286 286 286 286 285 284 283 283 283 282 282 281 280 280 279 278 278 277 276 276 276 276 276 276 276 275 274 272 271
275 275 276 275 275 276 277 278 276 272 272 276 278 277 277 276 275 275 276 276 275 275 275 275 275 274 274 273 273 274 274 276 278 279 281 281 280 279 280 282 284 285 286 286 287 287 287 287 287 287 287 287 287 287 288 287 286 285 285 285 285 285 284 283 283 282 282 281 281 280 280 280 280 279 278 277 276 276 276 276 275 275 274 273 272 271
273 274 275 274 273 274 275 272 272 274 276 278 278 278 278 278 277 276 277 275 274 274 274 274 274 274 273 273 274 275 276 277 279 280 281 281 280 280 280 282 285 286 286 287 288 288 288 288 288 287 287 287 287 287 287 287 286 285 285 284 284 284 283 283 282 281 281 280 280 280 280 280 279 279 278 278 277 277 276 276 275 275 274 273 271 270
270 272 273 273 272 272 272 271 273 277 278 276 276 277 276 276 276 276 276 275 274 274 275 274 274 274 273 274 276 277 278 280 281 281 282 281 280 280 281 283 285 286 287 287 288 288 288 288 288 288 288 288 287 287 287 287 286 286 285 285 284 284 283 282 281 281 280 279 279 279 279 279 279 278 278 277 276 276 276 275 275 274 274 272 271 270
271 270 271 271 271 271 272 274 275 277 277 276 276 277 276 276 276 275 277 277 274 273 275 275 274 275 276 277 278 279 281 283 282 282 283 282 281 281 283 284 285 286 287 288 289 289 289 289 289 289 289 289 289 288 288 287 287 286 286 285 285 284 283 282 281 280 279 279 279 279 279 278 278 277 277 276 275 275 274 274 274 274 273 272 271 270
272 271 269 269 270 270 271 272 273 274 276 277 276 276 277 277 276 277 279 279 276 273 273 274 275 277 277 278 279 280 282 283 283 283 284 284 283 283 284 286 287 287 288 289 290 291 291 291 291 290 290 290 290 290 289 288 288 287 286 286 285 285 284 283 282 281 279 279 278 278 278 277 277 276 275 275 274 273 273 272 272 272 272 271 270 270
274 273 270 267 268 268 269 271 272 273 275 275 274 275 277 277 278 279 279 279 276 271 272 274 276 277 278 278 279 281 281 282 283 285 286 285 285 285 286 287 288 289 289 290 291 292 292 292 292 292 291 291 291 291 290 289 288 288 287 287 286 285 284 283 282 281 280 279 278 277 277 277 276 275 274 274 273 272 272 271 270 270 270 270 269 269
276 274 271 269 269 268 268 270 272 273 273 273 273 274 275 276 278 276 276 277 273 271 274 276 277 277 278 278 279 280 280 281 283 285 287 287 286 286 287 288 289 290 290 291 292 293 293 293 292 292 292 292 292 291 291 290 289 288 288 288 286 285 285 284 283 282 281 280 279 278 278 277 276 275 273 273 273 272 271 270 270 269 269 269 268 268
276 275 274 272 271 270 270 271 273 274 274 273 274 275 275 275 276 274 275 276 273 272 277 278 277 278 279 278 279 280 281 283 284 286 287 287 287 288 289 289 290 291 291 292 292 293 294 293 293 293 293 292 292 292 291 291 290 289 289 288 287 286 286 285 284 283 282 281 280 279 278 277 276 275 274 272 272 272 270 270 269 269 268 268 268 267
274 274 275 273 273 273 272 271 273 276 276 273 274 277 276 274 275 276 278 278 277 277 279 279 278 279 280 279 280 282 283 285 286 286 287 288 289 290 290 290 291 291 292 293 293 294 294 294 294 294 293 293 293 293 293 292 290 290 289 288 287 287 286 285 284 283 282 281 280 279 278 277 276 275 274 273 272 271 270 269 268 268 267 267 266 266
273 272 274 275 273 272 270 270 273 277 277 274 274 276 276 274 277 280 281 281 281 281 280 279 279 280 281 281 283 284 285 286 287 288 289 289 290 290 291 292 292 293 293 294 294 295 295 295 294 294 294 294 294 294 293 292 291 290 289 288 288 288 286 285 284 283 282 281 281 280 279 277 276 275 274 273 272 271 270 268 267 267 266 266 265 265
273 272 274 275 273 271 270 272 275 278 279 276 275 276 277 278 279 281 281 282 282 281 280 280 281 282 282 283 284 285 286 287 288 289 289 290 291 292 292 293 293 294 294 295 295 296 296 295 295 295 294 294 294 294 293 292 291 290 290 289 289 288 287 286 284 283 282 281 280 280 279 278 276 274 273 272 271 270 269 268 267 266 265 265 264 263
275 276 277 276 276 275 274 275 277 278 279 277 276 277 278 279 280 281 280 280 281 280 281 282 283 284 284 284 284 285 286 287 288 289 290 291 292 293 293 294 294 295 296 296 297 297 297 296 296 295 295 294 294 294 293 292 291 291 290 290 290 289 287 286 285 284 283 281 280 279 278 278 276 275 273 272 270 269 268 267 266 265 264 263 263 262
278 276 275 276 277 277 277 279 279 278 278 278 278 279 279 279 280 281 280 280 281 281 282 283 284 285 285 285 285 285 287 288 289 290 291 292 293 294 295 296 297 297 298 298 298 298 298 297 296 296 295 295 295 295 294 293 292 292 292 291 290 289 288 287 285 284 283 282 281 279 278 277 276 275 273 271 270 269 267 266 265 264 262 261 261 260
281 278 276 276 277 276 278 281 282 280 279 280 280 280 280 280 281 281 281 281 281 282 283 284 284 285 285 286 286 287 288 290 291 291 293 293 294 296 297 298 299 299 299 299 299 299 298 298 297 297 296 296 296 296 295 294 293 293 292 292 291 290 288 287 286 285 283 282 281 280 278 277 275 274 273 271 269 268 267 265 264 263 262 260 259 259
281 279 279 280 280 279 280 283 284 283 282 281 280 280 281 281 281 281 282 282 282 282 283 285 285 285 286 287 288 289 290 291 292 293 294 295 297 298 299 300 300 300 300 300 300 300 299 298 298 298 297 297 297 296 295 295 294 294 293 292 291 290 289 288 286 285 284 283 282 280 279 277 275 274 272 271 269 267 266 264 263 263 262 260 259 258
278 279 280 281 281 281 283 285 285 284 283 282 281 281 281 281 282 282 282 283 282 283 284 285 286 287 287 288 289 290 291 292 294 295 296 297 299 299 300 300 300 300 301 301 301 300 300 299 299 299 298 298 298 297 297 296 295 294 293 292 291 290 289 288 287 286 285 284 282 281 280 278 277 275 273 271 270 268 266 264 263 262 261 260 259 258
278 279 281 280 281 283 285 286 284 283 282 283 283 283 283 284 283 282 282 283 283 283 285 286 286 287 288 289 290 291 292 294 296 297 298 299 300 300 300 300 301 302 302 302 302 301 301 301 300 300 300 300 299 299 298 297 296 295 294 293 292 291 290 289 288 287 286 285 284 283 281 280 278 276 274 273 271 269 268 266 264 262 261 260 259 258